GFSCGP_sfc_thetae_060.txt.gz
Theta_e
290 287 285 288 288 287 286 284 283 286 290 287 289 288 289 289 288 287 286 286 286 286 287 288 288 288 289 290 291 292 293 294 298 299 301 297 295 295 294 295 294 295 295 296
287 284 290 290 289 287 285 283 283 287 290 289 287 287 287 287 286 286 285 285 285 286 287 288 287 287 288 288 289 290 290 291 293 294 293 293 292 291 290 290 290 290 290 291
287 290 292 290 287 286 284 283 283 285 287 286 284 284 284 286 286 286 286 286 286 286 285 286 286 286 286 286 287 289 289 290 290 291 291 291 290 288 287 287 287 287 287 288
288 291 291 288 288 288 283 289 288 287 284 281 284 278 282 283 283 284 284 284 284 285 286 286 285 284 284 284 286 287 288 288 288 289 288 286 284 283 284 285 284 285 286 285
289 289 288 288 289 290 287 289 288 285 282 279 279 278 281 283 281 282 283 283 284 284 285 284 284 285 284 284 283 284 286 286 286 286 285 284 283 283 282 282 282 283 284 284
290 290 291 290 290 291 289 287 285 282 280 276 281 280 280 281 283 282 283 283 284 284 284 284 284 285 284 283 282 282 284 284 285 284 284 282 281 281 281 281 281 281 282 282
285 287 288 290 286 286 286 284 278 275 275 276 280 279 282 284 285 285 284 283 283 283 283 282 282 282 282 282 282 282 282 281 282 283 283 282 282 281 281 281 281 281 281 281
283 281 288 290 288 285 284 284 278 271 273 276 281 278 283 284 285 287 286 285 284 283 283 282 282 281 282 282 281 281 281 280 281 281 282 282 282 282 281 280 280 280 280 281
282 283 287 287 289 289 284 282 285 278 267 272 278 281 283 284 283 284 284 284 283 282 282 282 282 282 281 281 281 281 281 281 281 280 280 280 281 281 280 280 279 279 279 281
288 283 286 286 288 286 286 288 281 279 270 268 276 278 280 280 281 282 283 283 283 283 282 282 282 282 281 281 281 281 281 280 280 280 280 280 280 280 280 280 280 280 280 280
288 286 283 286 284 284 283 282 282 283 279 271 269 275 282 283 284 283 284 284 283 282 282 281 282 282 282 281 279 280 280 280 280 281 280 280 280 280 279 279 279 279 280 280
289 286 278 282 284 286 284 284 283 279 275 275 276 278 284 285 286 285 285 284 283 282 282 282 281 280 280 280 281 281 281 280 280 280 280 280 280 279 279 278 279 279 279 280
292 287 281 282 282 285 283 284 284 283 280 275 273 276 285 285 284 286 284 283 283 282 280 280 280 279 280 279 279 279 279 278 278 278 278 278 278 278 278 278 279 279 279 279
295 287 284 278 281 282 281 283 283 283 279 278 280 280 283 284 283 284 284 283 283 282 280 279 278 278 278 279 278 277 277 277 277 278 278 277 277 277 277 278 277 277 277 276
292 285 286 285 284 284 281 279 282 282 284 281 284 282 283 285 285 285 284 284 281 280 278 277 277 277 278 278 277 276 276 277 276 276 276 275 276 276 276 275 275 274 274 274
288 284 284 280 280 281 281 283 282 284 283 281 280 279 284 281 279 279 280 281 279 278 278 278 279 279 278 278 276 278 275 274 275 274 274 275 274 274 273 273 272 272 271 271
284 280 280 277 275 275 276 279 281 282 281 282 278 283 279 277 279 278 278 277 278 277 277 278 278 278 278 278 278 274 273 274 274 273 273 273 272 270 270 270 269 269 268 268
281 280 278 270 270 270 277 275 276 281 278 280 277 275 278 279 278 278 277 277 277 277 278 278 278 277 277 275 273 273 273 272 272 270 269 270 269 267 268 267 267 266 266 266
281 278 269 271 268 274 276 274 273 275 275 277 278 275 275 275 275 274 277 277 277 278 279 279 278 277 274 273 272 271 271 271 270 269 269 268 267 265 265 263 264 264 263 263
279 279 279 265 268 268 274 273 276 277 269 274 276 273 274 274 270 272 276 278 278 279 279 278 277 275 273 271 271 270 269 268 267 268 267 267 266 261 262 263 262 262 261 262
273 273 274 265 270 271 274 275 276 269 272 272 276 275 275 273 275 277 278 277 279 278 277 275 274 273 271 270 269 268 267 266 267 266 265 265 264 261 261 261 261 260 259 260
271 271 267 268 267 269 275 274 272 275 276 276 274 275 275 276 277 277 277 277 277 276 275 274 271 270 270 269 267 266 265 266 264 264 263 260 258 258 260 257 258 258 258 257
268 272 269 272 270 274 276 275 278 278 277 277 277 277 277 277 277 277 276 276 276 274 274 271 269 268 267 267 265 263 265 264 263 257 254 254 257 258 259 257 258 258 258 257
271 273 270 270 272 275 277 278 279 279 279 279 279 278 277 277 277 276 275 275 274 272 270 268 266 266 265 264 265 262 262 263 252 250 255 257 257 258 258 259 260 258 258 258
273 273 269 269 273 275 277 278 279 279 278 277 276 277 278 277 275 276 274 272 272 271 269 267 266 265 264 263 262 258 260 256 255 254 257 257 257 256 258 260 259 260 262 263
273 271 269 267 275 276 277 279 279 278 277 277 277 275 275 276 276 275 273 272 271 269 267 266 265 263 262 261 260 256 254 253 252 255 257 257 258 258 259 259 259 264 266 268

GFSCGP_sfc_thetae_063.txt.gz
Theta_e
291 288 287 290 289 288 287 285 285 288 290 289 289 289 290 289 287 286 286 286 286 286 288 289 289 289 290 291 292 293 295 296 300 299 298 294 292 291 290 291 290 291 293 295
288 285 291 290 289 288 286 284 284 287 289 289 288 288 287 286 286 286 285 286 286 287 287 288 288 288 288 289 290 291 292 293 294 295 294 293 291 289 289 289 288 288 289 290
286 289 291 290 287 286 285 284 284 286 288 288 286 285 284 285 285 286 286 286 286 286 285 286 286 285 286 286 288 289 289 290 290 292 292 290 289 288 286 286 286 286 287 288
288 291 290 288 287 288 283 287 287 287 286 282 285 280 283 284 283 284 284 284 285 285 285 285 285 284 285 285 287 287 287 288 288 288 286 285 284 283 284 285 285 286 286 286
288 288 288 288 289 289 288 289 287 286 284 281 282 280 282 283 281 282 283 284 284 285 285 284 284 284 284 284 284 286 286 286 286 285 285 284 283 284 284 284 285 285 285 285
290 291 290 291 290 290 289 287 285 283 281 277 282 282 281 281 283 283 284 284 284 284 284 284 285 284 283 283 284 285 285 285 285 285 284 284 283 283 283 284 284 284 285 285
286 287 288 290 286 287 286 284 279 277 276 277 281 279 283 285 285 285 284 284 284 284 284 283 283 282 282 282 282 283 284 283 284 284 284 284 283 284 283 283 283 284 284 284
283 282 287 289 288 285 284 285 279 272 273 277 281 278 284 286 286 286 287 286 285 284 284 283 282 282 282 282 282 282 282 282 283 284 284 284 284 284 283 283 283 283 283 283
282 283 286 287 288 289 284 282 285 277 267 274 279 282 285 284 283 284 284 284 283 283 283 283 282 282 282 282 282 282 282 282 282 282 282 283 283 283 283 282 283 283 283 283
287 282 285 285 288 286 285 287 281 279 271 269 277 278 281 281 282 282 283 283 283 283 283 283 282 282 282 282 282 282 282 282 282 282 282 282 282 282 282 282 282 282 282 283
288 285 283 285 284 284 283 282 282 283 280 273 271 277 283 284 284 282 284 284 284 283 283 283 282 282 282 281 281 281 281 281 281 282 282 282 282 282 282 281 281 281 282 281
289 286 278 282 284 285 284 284 284 282 276 276 276 280 285 286 285 285 284 285 285 284 283 283 282 282 281 280 280 281 281 282 282 281 281 281 281 281 280 280 280 281 280 280
290 286 277 281 282 282 283 284 284 283 283 281 276 280 285 284 284 285 285 285 284 283 282 282 281 280 280 280 281 281 280 279 280 280 280 280 279 279 278 278 279 279 278 277
295 288 286 284 284 283 281 282 283 285 282 281 281 279 283 283 283 284 284 285 284 283 282 281 280 280 280 280 279 278 278 278 279 279 278 277 277 277 277 277 276 275 275 274
292 286 287 286 284 282 279 280 282 282 285 283 285 283 284 286 286 286 286 284 283 283 281 281 280 280 279 278 278 277 277 277 277 277 276 275 276 276 275 274 273 273 273 273
291 285 286 283 283 285 284 283 282 283 283 282 282 282 286 285 284 284 284 284 283 282 281 281 280 280 279 279 276 278 276 275 276 275 274 275 274 273 272 272 271 271 270 270
285 282 283 280 277 278 277 280 283 284 283 284 281 286 282 281 283 284 282 283 283 282 280 280 280 280 279 278 279 276 274 275 274 273 273 272 271 270 270 269 269 268 268 268
283 282 280 270 273 271 279 275 278 283 284 282 279 280 284 283 280 281 280 281 280 280 280 279 279 278 278 277 275 274 274 273 272 271 271 270 269 268 267 267 266 266 266 265
281 281 272 272 272 276 278 274 275 279 279 282 283 279 278 277 278 277 279 279 280 280 280 280 280 278 276 274 274 273 272 272 271 270 269 268 267 265 265 263 264 264 264 263
280 281 281 270 271 270 275 273 276 278 271 276 282 278 276 276 275 278 277 278 278 279 279 278 278 276 275 273 272 271 270 269 269 269 268 267 266 262 262 263 262 263 262 263
274 275 276 273 272 274 277 275 275 270 273 273 276 275 275 275 277 278 277 277 278 278 278 277 276 275 273 272 270 269 268 268 268 267 266 265 264 262 261 261 261 260 260 261
274 274 271 271 271 271 276 274 274 277 276 276 275 276 276 277 277 277 277 276 277 277 276 275 274 272 271 270 269 268 267 267 266 265 264 261 258 259 261 257 258 258 258 258
271 276 273 275 275 276 277 277 279 279 277 276 276 277 277 277 276 276 275 275 276 275 275 273 272 270 268 268 267 266 266 265 264 260 255 254 257 259 259 257 258 258 259 258
271 273 271 272 273 275 277 278 279 279 278 279 278 277 277 276 276 276 274 275 275 273 272 270 269 268 267 266 267 265 265 264 256 253 256 258 257 258 258 260 260 259 258 259
273 273 269 269 273 275 277 278 279 279 278 277 276 277 277 276 275 275 275 274 274 273 271 270 270 269 267 265 264 262 262 259 257 256 258 258 258 257 258 260 260 261 262 263
273 271 270 269 275 276 277 280 279 278 278 277 277 275 275 276 276 274 274 275 273 271 269 268 268 267 265 264 263 259 258 257 256 258 259 258 258 258 259 259 259 263 266 268

GFSCGP_sfc_thetae_069.txt.gz
Theta_e
302 298 295 298 300 301 300 298 297 300 300 297 298 299 302 300 299 300 299 299 299 298 298 300 300 298 298 299 301 302 301 300 299 298 295 295 294 294 294 295 296 296 297 298
297 294 301 303 301 299 298 296 296 299 300 296 297 297 301 301 299 300 300 299 298 297 297 299 299 297 296 297 298 298 298 298 296 296 295 294 293 293 293 294 293 293 293 294
297 300 301 298 296 295 296 294 295 295 298 297 296 295 298 302 299 297 298 299 298 297 297 297 299 297 297 297 298 298 297 297 297 296 295 294 295 294 293 292 292 292 292 293
297 302 297 296 295 296 292 299 296 295 293 290 297 288 298 301 293 294 294 295 296 296 297 297 298 296 295 295 298 297 297 297 298 299 297 295 292 290 291 292 292 292 292 291
295 294 294 294 296 297 294 297 295 295 293 293 294 290 295 296 292 292 294 294 295 295 295 295 295 294 294 295 294 294 293 294 295 295 293 292 291 292 292 292 291 291 291 291
296 298 298 297 297 297 297 295 293 293 293 286 292 292 293 295 294 295 293 294 294 294 294 293 292 292 291 292 292 293 291 291 294 293 293 292 291 291 291 291 290 290 291 291
295 295 298 298 294 295 295 292 286 284 283 284 290 291 294 298 295 297 293 293 294 293 292 290 289 289 290 290 290 290 290 289 291 292 292 292 292 292 291 290 290 290 289 289
292 290 296 297 296 295 292 293 288 282 283 287 286 285 291 292 298 297 296 295 294 292 291 290 289 289 289 289 289 290 289 289 290 291 291 291 291 291 290 290 289 289 289 289
293 293 296 296 298 299 293 289 295 286 282 283 288 291 293 292 291 294 294 294 292 291 290 289 289 289 288 289 289 289 289 289 290 290 290 290 290 290 289 290 290 289 289 288
298 290 292 293 294 296 294 297 286 288 281 281 288 289 290 288 289 291 292 292 292 292 290 289 288 288 288 289 289 289 289 289 289 289 289 289 289 289 289 289 288 288 287 286
299 294 288 291 290 291 290 289 290 291 289 285 284 288 297 296 293 291 292 293 293 292 291 290 289 288 288 289 289 289 289 288 288 289 289 289 288 288 288 287 286 285 285 283
298 294 290 290 294 294 295 292 292 287 285 287 287 288 293 296 297 295 294 293 294 293 292 290 289 288 288 287 288 288 288 288 288 289 289 288 287 287 286 284 284 283 282 282
296 289 286 287 290 290 289 291 293 292 290 286 285 288 293 293 294 296 294 294 294 293 292 290 289 287 287 287 288 288 288 288 288 288 287 286 286 285 283 282 281 281 280 280
297 290 289 288 291 293 287 290 291 290 285 287 288 291 291 292 293 294 295 295 294 293 291 290 289 288 287 287 287 287 287 288 287 287 286 285 283 283 281 280 279 279 278 277
295 285 288 292 294 291 291 291 290 287 289 286 290 291 296 295 295 295 295 295 293 292 291 290 288 288 287 287 287 287 287 286 286 285 284 283 282 280 279 278 277 277 276 275
293 285 288 286 291 291 287 289 291 290 290 290 291 291 298 295 296 294 293 293 292 292 291 289 289 287 286 285 286 285 285 285 285 283 282 281 280 278 277 276 275 275 274 274
287 285 284 283 289 285 282 287 289 291 293 292 286 292 290 290 291 293 291 291 291 291 290 289 288 287 286 285 285 284 284 283 282 281 280 278 277 276 275 274 273 273 272 272
285 285 286 284 281 275 288 284 286 291 293 293 292 292 291 292 294 294 295 292 291 291 290 289 289 288 286 285 284 284 282 281 280 279 277 276 275 274 273 272 272 272 272 271
284 286 280 278 279 284 287 285 285 287 288 293 290 292 291 287 286 289 291 293 294 293 293 292 291 288 285 284 284 281 279 279 278 277 276 275 274 272 272 270 271 270 270 270
282 283 283 278 278 278 284 281 284 287 282 290 293 292 288 284 284 290 286 288 289 290 289 288 288 286 284 283 281 279 278 277 277 276 276 274 272 270 269 270 269 270 269 269
278 280 279 280 280 283 287 281 282 279 284 285 290 290 285 285 289 285 286 285 287 287 286 287 286 283 283 280 279 278 277 276 277 276 274 272 271 269 269 268 269 267 267 268
281 279 279 282 279 277 281 279 281 285 281 283 286 286 285 285 282 283 284 284 283 283 284 283 282 280 279 279 279 277 276 277 275 273 272 270 268 269 268 266 266 266 266 265
280 285 284 284 284 281 283 282 285 284 284 282 283 284 286 283 282 282 282 282 282 282 281 281 280 277 277 278 279 277 277 274 272 270 268 267 266 267 267 266 266 266 267 266
280 280 281 282 281 280 281 283 283 284 284 284 284 283 284 282 281 281 281 280 280 280 279 279 278 277 275 276 277 278 274 273 269 268 266 266 265 266 265 267 268 267 268 267
281 280 279 278 278 280 282 283 285 284 283 282 282 283 283 283 281 281 281 280 281 280 279 278 278 277 276 275 275 274 272 269 268 268 267 267 267 266 268 267 268 268 268 268
280 278 278 279 282 284 285 287 286 283 282 282 282 280 281 282 282 281 280 280 280 279 278 277 277 277 277 274 273 271 270 268 268 268 267 268 269 268 267 267 267 270 270 271

GFSCGP_sfc_thetae_072.txt.gz
Theta_e
300 294 291 294 296 297 295 293 292 296 297 293 293 294 297 297 295 295 296 295 295 295 296 299 297 296 299 301 302 300 299 299 299 298 295 293 291 291 291 292 292 291 292 292
294 291 298 300 299 297 295 292 292 295 298 293 292 293 296 296 296 297 297 295 295 294 294 297 295 297 297 297 298 298 297 296 296 295 293 292 291 290 291 291 290 290 290 290
294 297 300 298 295 294 293 291 292 292 295 293 290 289 293 297 298 297 297 296 296 293 293 296 295 295 296 297 297 297 297 295 293 293 292 292 292 291 288 288 288 289 289 289
296 300 297 294 294 294 290 296 295 293 289 285 292 283 290 294 295 294 293 292 293 293 294 296 294 294 295 296 298 296 296 295 294 294 293 291 288 286 287 287 287 288 289 289
293 293 293 293 294 296 292 295 293 291 288 287 288 285 288 292 292 292 292 291 292 292 293 294 293 293 293 294 293 293 293 293 294 292 291 288 287 287 288 288 287 287 288 288
294 296 294 294 295 295 296 292 291 289 288 281 287 287 288 292 294 292 292 291 292 292 292 292 291 292 291 291 291 290 290 289 289 289 288 288 287 287 287 286 286 286 287 287
293 293 295 296 291 292 292 288 282 280 280 280 287 286 290 293 292 294 292 291 292 292 291 288 287 288 289 288 289 287 286 286 287 287 287 287 287 286 286 285 286 285 285 285
289 287 293 295 293 290 289 289 284 277 278 280 282 281 288 290 292 294 294 293 292 291 289 287 287 286 286 286 285 285 285 286 286 287 287 287 287 287 286 286 286 285 284 284
289 290 294 294 295 295 289 286 293 286 276 276 283 286 291 289 289 291 291 291 290 289 287 286 286 286 286 285 285 285 285 285 286 286 286 285 286 286 285 285 285 284 283 284
294 288 291 289 292 292 291 294 284 286 276 277 282 284 286 286 287 289 290 290 290 289 287 286 286 286 286 286 286 285 286 285 285 286 286 286 285 286 286 285 283 283 282 281
296 291 285 288 287 289 288 286 288 290 285 280 277 282 288 290 290 289 291 291 290 289 287 286 286 286 285 285 285 285 285 285 285 285 285 285 285 285 284 283 282 281 280 279
297 292 283 285 289 292 293 290 290 284 281 283 281 285 290 291 292 291 291 292 291 290 288 286 285 285 285 284 285 284 285 284 284 285 285 284 284 283 281 280 279 279 278 278
296 289 284 286 288 290 286 290 291 291 287 283 281 284 290 291 291 291 290 291 291 290 288 286 285 284 284 284 284 284 284 284 284 284 284 282 282 280 279 278 277 278 277 276
298 290 287 285 287 288 283 286 289 289 284 283 286 287 289 288 289 291 290 291 291 290 288 286 285 284 284 284 284 284 284 285 284 284 283 281 280 279 278 277 277 276 275 274
295 285 287 290 292 289 288 287 287 286 288 284 287 288 292 295 291 292 292 291 290 290 288 287 285 285 284 284 284 284 284 284 284 283 281 279 279 278 277 276 276 275 275 274
293 284 286 286 289 289 287 289 290 289 289 288 289 288 293 291 292 289 291 291 290 290 289 287 286 284 284 284 284 283 284 284 283 282 279 279 278 277 277 276 275 275 274 273
287 285 284 282 285 286 282 286 288 290 291 291 285 290 289 288 291 289 290 291 290 291 290 288 287 285 284 284 284 284 283 283 282 280 279 278 277 276 275 275 274 273 272 271
285 285 285 283 281 276 284 283 290 289 291 292 292 292 287 289 290 289 289 290 290 291 291 289 288 287 285 285 284 284 283 282 281 279 278 277 276 275 274 272 272 271 271 270
288 285 282 279 278 282 285 280 281 283 286 289 291 289 288 286 286 287 291 293 293 292 292 291 290 288 286 284 284 282 281 280 279 277 276 275 275 273 272 270 270 270 269 268
283 283 284 279 277 277 282 280 282 286 280 286 289 288 287 285 285 292 290 290 289 290 289 288 289 286 284 282 282 280 279 278 277 277 276 275 273 272 270 270 269 267 266 267
278 279 279 281 279 281 285 280 281 277 281 280 286 288 283 285 285 283 284 284 285 285 285 285 285 283 282 281 280 279 278 277 279 277 275 273 272 270 269 267 266 264 263 266
279 278 277 281 279 276 280 279 281 283 279 279 282 284 283 281 280 281 281 281 282 282 283 282 281 280 279 280 279 278 277 279 277 274 272 270 267 269 267 263 262 261 259 258
278 280 279 281 280 280 281 281 282 282 280 279 280 282 284 281 279 279 279 279 280 280 280 279 278 276 277 278 279 277 276 275 272 271 268 266 265 266 265 261 262 261 259 260
279 279 278 279 279 279 280 281 281 281 280 280 279 280 282 279 279 279 278 279 278 277 277 275 276 275 274 274 276 275 274 272 270 268 266 264 264 263 263 265 264 262 263 262
278 278 275 275 277 278 279 280 282 281 280 279 278 279 280 279 277 278 277 276 278 277 276 276 275 274 273 272 272 272 271 270 268 266 265 265 264 264 263 264 264 265 263 264
277 277 276 276 280 280 281 282 283 281 280 279 278 277 279 280 278 278 276 277 276 275 274 274 273 273 271 272 270 269 269 269 268 266 265 265 265 264 265 264 263 272 271 272